[[{"header":{"parameterUnit":"m.s-1","parameterCategory":1,"la1":30.2991,"la2":30.254,"lo1":-89.0895,"lo2":-89.0444,"dy":0.0017,"dx":0.0017,"nx":28,"ny":28,"refTime":"2024-12-09T03:00:00:Z","depth":0,"parameterNumber":2,"parameterNumberName":"U-component_of_WINDS"},"data":[0,0,0,0,0,0,0,0,0,0,0,0,0,0,0,0,0,0,0,0,0,0,0,0,0,0,0,0,0,0,0,0,0,0,0,0,0,0,0,0,0,0,0,0,0,0,0,0,0,0,0,0,0,0,0,0,0,0,-0.1719,-0.1719,0,-0.1677,-0.1676,-0.1676,-0.1673,-0.1674,-0.1674,-0.1675,-0.1628,-0.1626,-0.1625,0,0,0,0,0,0,0,0,0,0,0,0,0,-0.1795,-0.1793,-0.1719,-0.1719,-0.1718,-0.1677,-0.1676,-0.1676,-0.1673,-0.1674,-0.1674,-0.1675,-0.1629,-0.1627,-0.1624,0,0,0,0,0,0,0,0,0,0,0,0,0,-0.1758,-0.1793,-0.1719,-0.1712,-0.1711,-0.1677,-0.1676,-0.1676,-0.1673,-0.1674,-0.1674,-0.1675,-0.1629,-0.1627,-0.1624,-0.1594,0,0,-0.1616,-0.1615,0,0,0,0,0,0,0,0,-0.176,-0.1755,-0.1714,-0.1712,-0.1711,-0.1681,-0.1686,-0.1648,-0.1673,-0.1687,-0.1675,-0.1675,-0.1645,-0.1641,-0.1631,-0.1592,-0.159,-0.1616,-0.1615,-0.1614,-0.1613,0,0,0,0,0,0,0,-0.1763,-0.1757,-0.1702,-0.1713,-0.1711,-0.171,-0.1705,-0.1679,-0.1662,-0.1686,-0.1686,-0.1681,-0.1644,-0.1634,-0.163,-0.1589,-0.1616,-0.1614,-0.1612,-0.1611,-0.1521,-0.152,0,0,0,0,0,0,-0.1767,-0.1759,-0.1704,-0.1701,-0.1738,-0.1708,-0.1703,-0.169,-0.1663,-0.1659,-0.168,-0.1681,-0.1638,-0.1633,-0.1629,-0.159,-0.1614,-0.1611,-0.161,-0.1522,-0.1521,-0.152,0,0,0,0,0,0,-0.1769,-0.1762,-0.1705,-0.173,-0.1723,-0.1706,-0.1691,-0.1689,-0.1678,-0.1658,-0.1655,-0.1673,-0.1638,-0.1632,-0.1602,-0.1589,-0.161,-0.1608,-0.1523,-0.1521,-0.152,-0.1514,0,0,0,0,0,0,-0.1771,-0.1763,-0.1752,-0.173,-0.1721,-0.1681,-0.169,-0.1687,-0.1674,-0.1675,-0.1651,-0.1647,-0.1638,-0.1606,-0.16,-0.1585,-0.1606,-0.1524,-0.1522,-0.1521,-0.1515,-0.1512,-0.151,0,0,0,0,0,-0.1774,-0.1751,-0.1751,-0.1745,-0.1708,-0.168,-0.1675,-0.1666,-0.1673,-0.1661,-0.1649,-0.1648,-0.1592,-0.1603,-0.1596,-0.1581,-0.1525,-0.1523,-0.1521,-0.1516,-0.1513,-0.151,0,0,0,0,0,0,-0.1771,-0.1748,-0.1748,-0.1718,-0.1701,-0.168,-0.1665,-0.1663,-0.1643,-0.1644,-0.1633,-0.1628,-0.1598,-0.1587,-0.16,-0.1549,-0.1559,-0.1555,-0.1558,-0.1554,-0.1552,-0.1554,-0.1604,0,0,0,0,0,-0.1767,-0.1748,-0.1729,-0.1704,-0.1696,-0.1682,-0.167,-0.1664,-0.1646,-0.1638,-0.1623,-0.1605,-0.1582,-0.1568,-0.1547,-0.1514,-0.1508,-0.15,-0.1497,-0.1495,-0.1492,-0.1472,-0.1468,-0.1513,-0.1513,-0.1513,0,0,-0.1759,-0.1744,-0.1732,-0.1703,-0.169,-0.1669,-0.1676,-0.1654,-0.1637,-0.1635,-0.1605,-0.1594,-0.1572,-0.154,-0.1526,-0.153,-0.1478,-0.1493,-0.1491,-0.1489,-0.1469,-0.1465,-0.1461,-0.1512,-0.1512,-0.1512,0,0,-0.1732,-0.172,-0.1698,-0.1684,-0.1663,-0.1654,-0.1649,-0.1627,-0.162,-0.1591,-0.1588,-0.1568,-0.1531,-0.1515,-0.1502,-0.1469,-0.1467,-0.1463,-0.1449,-0.1429,-0.1426,-0.1423,-0.1409,-0.1405,-0.1459,-0.1459,-0.1459,0,-0.1724,-0.1693,-0.1686,-0.1664,-0.165,-0.1648,-0.1624,-0.1611,-0.1584,-0.1574,-0.158,-0.1532,-0.1518,-0.1481,-0.1473,-0.1464,-0.1456,-0.1464,-0.1427,-0.1424,-0.1421,-0.1408,-0.1403,-0.1459,-0.1459,-0.1459,-0.1459,0,-0.1683,-0.1662,-0.1646,-0.1621,-0.1606,-0.1583,-0.1571,-0.1557,-0.1553,-0.1543,-0.1512,-0.1495,-0.1469,-0.1461,-0.1456,-0.1423,-0.1426,-0.143,-0.1439,-0.1416,-0.1403,-0.1399,-0.1458,-0.1458,-0.1458,-0.1459,0,0,-0.1654,-0.1625,-0.1619,-0.1607,-0.1584,-0.1566,-0.1543,-0.1519,-0.1506,-0.1488,-0.1466,-0.1435,-0.1438,-0.1423,-0.1417,-0.14,-0.1374,-0.1405,-0.1405,-0.1399,-0.1334,-0.1331,-0.1325,-0.1373,-0.1372,-0.1371,-0.1336,0,-0.1623,-0.1582,-0.1575,-0.1538,-0.1518,-0.1515,-0.1495,-0.1477,-0.1467,-0.1447,-0.1436,-0.1413,-0.1419,-0.141,-0.1394,-0.138,-0.136,-0.1383,-0.1351,-0.135,-0.1355,-0.1319,-0.1315,-0.1282,-0.1331,-0.133,-0.1329,0,-0.1582,-0.1563,-0.1525,-0.1504,-0.1495,-0.1477,-0.1453,-0.1435,-0.1415,-0.1409,-0.1392,-0.1388,-0.1362,-0.1374,-0.1337,-0.1353,-0.1339,-0.1331,-0.1329,-0.1324,-0.1337,-0.1312,-0.1272,-0.1266,-0.1322,-0.1323,-0.1323,0,-0.1562,-0.1527,-0.1499,-0.1489,-0.1465,-0.1451,-0.144,-0.1421,-0.1407,-0.1387,-0.1377,-0.1353,-0.134,-0.1322,-0.131,-0.132,-0.1274,-0.1285,-0.1266,-0.1266,-0.1255,-0.1256,-0.1211,-0.125,-0.125,-0.125,-0.125,0,-0.1528,-0.1505,-0.149,-0.1473,-0.1446,-0.1437,-0.141,-0.1399,-0.1382,-0.1361,-0.1358,-0.1339,-0.1326,-0.1305,-0.1296,-0.1266,-0.126,-0.1253,-0.1251,-0.1253,-0.1253,-0.1242,-0.1244,-0.1249,-0.1249,-0.1249,-0.1249,0,-0.1501,-0.149,-0.146,-0.1439,-0.1433,-0.1414,-0.1395,-0.1377,-0.1368,-0.1342,-0.1335,-0.1319,-0.1293,-0.1281,-0.1249,-0.1243,-0.1209,-0.1209,-0.1216,-0.1214,-0.1196,-0.1197,-0.1141,-0.1132,-0.1179,-0.1178,-0.1178,0,-0.1479,-0.1461,-0.1438,-0.1424,-0.1413,-0.1391,-0.1377,-0.1367,-0.1352,-0.1328,-0.1313,-0.1287,-0.1266,-0.1225,-0.121,-0.1185,-0.1184,-0.1166,-0.118,-0.1182,-0.1181,-0.1182,-0.1179,-0.1163,-0.1162,-0.1162,-0.1162,0,-0.1441,-0.1436,-0.1416,-0.1394,-0.1376,-0.1358,-0.134,-0.1329,-0.1316,-0.1299,-0.1273,-0.1257,-0.1225,-0.1199,-0.1173,-0.116,-0.1158,-0.1158,-0.1152,-0.1152,-0.1156,-0.1152,-0.1207,-0.1158,-0.1159,-0.1159,-0.1159,-0.1159,-0.1414,-0.1397,-0.1378,-0.1355,-0.1341,-0.1324,-0.1306,-0.1294,-0.1273,-0.1246,-0.1242,-0.1214,-0.1194,-0.1159,-0.1145,-0.1122,-0.1126,-0.1118,-0.1116,-0.1113,-0.1111,-0.1162,-0.1118,-0.1118,-0.1118,-0.1118,-0.1118,0,-0.1374,-0.1362,-0.1341,-0.1316,-0.1298,-0.1299,-0.1279,-0.1263,-0.1238,-0.122,-0.12,-0.1169,-0.1144,-0.1127,-0.1101,-0.1086,-0.1084,-0.1079,-0.1079,-0.1076,-0.111,-0.1117,-0.1081,-0.1081,-0.1081,-0.1081,-0.1081,-0.1081,-0.1351,-0.1322,-0.1315,-0.1279,-0.1266,-0.124,-0.1228,-0.1211,-0.1197,-0.1163,-0.1143,-0.1132,-0.1114,-0.1086,-0.1063,-0.1058,-0.1048,-0.1043,-0.1038,-0.107,-0.1074,-0.1077,-0.1084,-0.1041,-0.1041,-0.1005,-0.1005,-0.1005]},{"header":{"parameterUnit":"m.s-1","parameterCategory":1,"la1":30.2991,"la2":30.254,"lo1":-89.0895,"lo2":-89.0444,"dy":0.0017,"dx":0.0017,"nx":28,"ny":28,"refTime":"2024-12-09T03:00:00:Z","depth":0,"parameterNumber":3,"parameterNumberName":"V-component_of_WINDS"},"data":[0,0,0,0,0,0,0,0,0,0,0,0,0,0,0,0,0,0,0,0,0,0,0,0,0,0,0,0,0,0,0,0,0,0,0,0,0,0,0,0,0,0,0,0,0,0,0,0,0,0,0,0,0,0,0,0,0,0,3.4549,3.455,0,3.472,3.4722,3.4724,3.4745,3.4744,3.4742,3.474,3.4919,3.4925,3.4932,0,0,0,0,0,0,0,0,0,0,0,0,0,3.4242,3.4248,3.4548,3.4551,3.4553,3.472,3.4722,3.4725,3.4746,3.4743,3.4741,3.4739,3.4917,3.4925,3.4932,0,0,0,0,0,0,0,0,0,0,0,0,0,3.4391,3.425,3.4548,3.4583,3.4588,3.472,3.4723,3.4725,3.4746,3.4743,3.4741,3.4739,3.4915,3.4924,3.4933,3.5043,0,0,3.4962,3.4967,0,0,0,0,0,0,0,0,3.4382,3.4402,3.4576,3.4581,3.4587,3.4709,3.468,3.4832,3.4747,3.4686,3.474,3.4737,3.4852,3.4866,3.4904,3.5051,3.5059,3.4963,3.4969,3.4973,3.4976,0,0,0,0,0,0,0,3.4372,3.4395,3.4617,3.4578,3.4585,3.4592,3.461,3.4709,3.4781,3.4691,3.4693,3.4713,3.4854,3.4895,3.4908,3.5061,3.4963,3.4971,3.4977,3.4981,3.5311,3.5314,0,0,0,0,0,0,3.4355,3.4386,3.4611,3.4622,3.4476,3.4599,3.462,3.4672,3.478,3.4794,3.4715,3.4713,3.488,3.4897,3.4915,3.5053,3.4973,3.4982,3.4987,3.5308,3.5311,3.5315,0,0,0,0,0,0,3.4348,3.4375,3.4604,3.4505,3.4534,3.4607,3.4666,3.4677,3.4718,3.4798,3.4811,3.4743,3.4878,3.4901,3.5011,3.506,3.4986,3.4995,3.5304,3.5309,3.5313,3.5329,0,0,0,0,0,0,3.4339,3.4372,3.4414,3.4505,3.4539,3.4697,3.4669,3.4682,3.4734,3.4733,3.4828,3.4841,3.4878,3.4997,3.5021,3.5071,3.5002,3.53,3.5306,3.5311,3.5324,3.5333,3.5341,0,0,0,0,0,3.4328,3.4411,3.4415,3.4443,3.4593,3.47,3.4719,3.4759,3.4737,3.4781,3.4832,3.4838,3.5049,3.5008,3.5035,3.5089,3.5297,3.5304,3.5311,3.5321,3.5332,3.5341,0,0,0,0,0,0,3.4324,3.4424,3.443,3.4544,3.4613,3.4703,3.4759,3.4769,3.4847,3.4843,3.489,3.4911,3.502,3.5065,3.5017,3.5202,3.5172,3.5184,3.517,3.5181,3.5189,3.5178,3.501,0,0,0,0,0,3.4336,3.4414,3.4497,3.459,3.4624,3.4685,3.4733,3.4758,3.4832,3.4862,3.4921,3.4994,3.5077,3.513,3.5211,3.5329,3.5353,3.538,3.5388,3.5395,3.5407,3.5476,3.5491,3.5337,3.5337,3.5337,0,0,3.4363,3.4427,3.4473,3.4591,3.4647,3.4729,3.471,3.4796,3.4857,3.4875,3.4984,3.5029,3.5113,3.5229,3.5283,3.527,3.5453,3.5404,3.5408,3.5417,3.5485,3.5499,3.5512,3.5342,3.5341,3.534,0,0,3.4454,3.4508,3.4594,3.465,3.4735,3.4776,3.4796,3.4884,3.4916,3.5025,3.5041,3.5114,3.5255,3.5316,3.5365,3.5479,3.5488,3.5503,3.5548,3.5616,3.5628,3.5639,3.5684,3.5699,3.5514,3.5514,3.5514,0,3.4477,3.4598,3.4636,3.4723,3.4776,3.4794,3.4882,3.4935,3.5043,3.508,3.5063,3.5242,3.5299,3.5431,3.5459,3.5497,3.5524,3.5495,3.5623,3.5634,3.5645,3.5688,3.5705,3.5515,3.5515,3.5515,3.5515,0,3.4624,3.4708,3.4767,3.4871,3.4929,3.5016,3.5069,3.5124,3.5143,3.5186,3.5298,3.5367,3.5464,3.5496,3.5516,3.5632,3.5622,3.5613,3.5584,3.5661,3.5703,3.5719,3.5518,3.5517,3.5516,3.5516,0,0,3.472,3.4843,3.4864,3.4912,3.5008,3.5075,3.5162,3.5256,3.5304,3.5377,3.5455,3.5574,3.5567,3.5623,3.5649,3.5707,3.5798,3.5692,3.5695,3.5713,3.5935,3.5944,3.5962,3.5803,3.5806,3.5809,3.5929,0,3.4825,3.4982,3.5019,3.5155,3.5235,3.5253,3.533,3.5398,3.544,3.5515,3.5561,3.5647,3.5629,3.5664,3.5722,3.5775,3.5844,3.5766,3.5879,3.5883,3.5862,3.5983,3.5993,3.6103,3.5945,3.5948,3.595,0,3.4969,3.5046,3.5189,3.5276,3.5311,3.538,3.547,3.554,3.5618,3.5645,3.5707,3.5727,3.5822,3.5785,3.5918,3.5864,3.5912,3.5945,3.595,3.5966,3.5924,3.6006,3.6139,3.6157,3.5975,3.5973,3.5971,0,3.503,3.5168,3.5273,3.5313,3.5416,3.5464,3.5509,3.5584,3.5639,3.5718,3.5754,3.5842,3.5892,3.5961,3.6006,3.5974,3.6137,3.6102,3.6164,3.6163,3.6201,3.6199,3.6348,3.6225,3.6224,3.6224,3.6224,0,3.5146,3.5234,3.5302,3.5367,3.5467,3.5508,3.5607,3.5652,3.5719,3.5795,3.5815,3.5886,3.5938,3.6017,3.6052,3.616,3.618,3.6207,3.6216,3.6208,3.6205,3.6243,3.6238,3.6228,3.6227,3.6227,3.6226,0,3.5232,3.528,3.5397,3.5484,3.5508,3.5579,3.5654,3.5719,3.576,3.5856,3.5881,3.5947,3.6041,3.6091,3.6208,3.6232,3.6354,3.6356,3.6328,3.6333,3.6394,3.6389,3.6576,3.6604,3.6458,3.6459,3.646,0,3.5305,3.5374,3.5469,3.552,3.5566,3.5649,3.5705,3.5748,3.5806,3.59,3.5955,3.6049,3.6127,3.6277,3.6336,3.6427,3.6435,3.6494,3.6449,3.6439,3.6441,3.6438,3.6447,3.6503,3.6505,3.6506,3.6506,0,3.5432,3.5452,3.5531,3.562,3.5685,3.5757,3.5828,3.5869,3.5925,3.5989,3.6085,3.6145,3.6265,3.636,3.6455,3.6504,3.6517,3.6519,3.654,3.6534,3.6517,3.6531,3.6354,3.6516,3.6515,3.6515,3.6514,3.6514,3.5517,3.558,3.5657,3.5745,3.5802,3.5869,3.5935,3.5984,3.6064,3.6165,3.6186,3.6288,3.6366,3.6495,3.6546,3.6628,3.6617,3.6645,3.6653,3.666,3.6665,3.6499,3.6645,3.6645,3.6645,3.6644,3.6644,0,3.5648,3.5698,3.5778,3.5877,3.5947,3.5949,3.6028,3.6088,3.6177,3.6248,3.6325,3.6436,3.6529,3.6595,3.669,3.6743,3.6751,3.6767,3.6766,3.6778,3.6667,3.6643,3.6759,3.6759,3.6759,3.6759,3.6759,3.6759,3.5725,3.5832,3.5862,3.5999,3.6049,3.6149,3.6195,3.6257,3.6314,3.6437,3.6514,3.6556,3.6626,3.6726,3.6812,3.6829,3.6865,3.6881,3.69,3.6797,3.6785,3.6773,3.6751,3.6887,3.6888,3.7004,3.7005,3.7006]}]]